Tracking 30143 objects as of 26-Jan-2025
HD Live streaming from Space Station
objects crossing your sky now

ONEWEB-0644

Track ONEWEB-0644 now!
10-day predictions
ONEWEB-0644 is classified as:


NORAD ID: 55808
Int'l Code: 2023-029N
Perigee: 1,191.3 km
Apogee: 1,194.5 km
Inclination: 87.9 °
Period: 109.1 minutes
Semi major axis: 7563 km
RCS: Unknown
Launch date: March 9, 2023
Source: United Kingdom (UK)
Launch site: AIR FORCE EASTERN TEST RANGE (AFETR)
Your satellite tracking list
Your tracking list is empty




NASA's NSSDC Master Catalog

Two Line Element Set (TLE):
1 55808U 23029N   25026.03079855  .00000030  00000-0  42775-4 0  9996
2 55808  87.9147  45.8106 0002150 107.6355 252.5013 13.19724618 92701
Source of the keplerian elements: AFSPC